Time,TemperatureF,DewpointF,PressureIn,WindDirection,WindDirectionDegrees,WindSpeedMPH,WindSpeedGustMPH,Humidity,HourlyPrecipIn,Conditions,Clouds,dailyrainin,SoftwareType,DateUTC
2013-09-08 00:48:00,71.5,68.0,30.00,SW,236,0.0,0.0,88,0.00,,,0.00,weatherlink.com 1.10,2013-09-08 04:48:00,
2013-09-08 01:03:00,71.5,68.0,30.00,SW,236,0.0,0.0,89,0.00,,,0.00,weatherlink.com 1.10,2013-09-08 05:03:00,
2013-09-08 01:18:00,71.6,68.0,30.00,SW,236,0.0,0.0,88,0.00,,,0.00,weatherlink.com 1.10,2013-09-08 05:18:00,
2013-09-08 01:33:00,71.8,68.0,30.00,SW,236,0.0,0.0,88,0.00,,,0.00,weatherlink.com 1.10,2013-09-08 05:33:00,
2013-09-08 01:48:00,71.8,68.0,30.00,SW,236,0.0,0.0,88,0.00,,,0.00,weatherlink.com 1.10,2013-09-08 05:48:00,
2013-09-08 02:03:00,71.7,68.0,30.00,WSW,237,0.0,0.0,89,0.00,,,0.00,weatherlink.com 1.10,2013-09-08 06:03:00,
2013-09-08 02:18:00,71.7,68.0,29.99,SW,236,0.0,0.0,89,0.00,,,0.00,weatherlink.com 1.10,2013-09-08 06:18:00,
2013-09-08 02:33:00,71.8,69.0,29.99,SW,236,0.0,0.0,89,0.00,,,0.00,weatherlink.com 1.10,2013-09-08 06:33:00,
2013-09-08 02:49:00,72.2,69.0,29.98,SW,236,0.0,0.0,89,0.00,,,0.00,weatherlink.com 1.10,2013-09-08 06:49:00,
2013-09-08 03:03:00,72.3,69.0,29.98,SW,236,0.0,0.0,88,0.00,,,0.00,weatherlink.com 1.10,2013-09-08 07:03:00,
2013-09-08 03:18:00,72.5,69.0,29.98,SW,236,0.0,0.0,89,0.00,,,0.00,weatherlink.com 1.10,2013-09-08 07:18:00,
2013-09-08 03:33:00,72.4,69.0,29.97,SW,236,0.0,0.0,89,0.00,,,0.00,weatherlink.com 1.10,2013-09-08 07:33:00,
2013-09-08 03:48:00,71.9,69.0,29.98,SW,236,0.0,0.0,90,0.00,,,0.00,weatherlink.com 1.10,2013-09-08 07:48:00,
2013-09-08 04:03:00,71.5,69.0,29.97,SW,236,0.0,0.0,90,0.00,,,0.00,weatherlink.com 1.10,2013-09-08 08:03:00,
2013-09-08 04:18:00,71.5,69.0,29.98,SW,236,0.0,0.0,91,0.00,,,0.00,weatherlink.com 1.10,2013-09-08 08:18:00,
2013-09-08 04:33:00,71.4,69.0,29.98,SW,222,0.0,0.0,92,0.00,,,0.00,weatherlink.com 1.10,2013-09-08 08:33:00,
2013-09-08 04:49:00,71.1,69.0,29.99,SW,222,0.0,0.0,93,0.00,,,0.00,weatherlink.com 1.10,2013-09-08 08:49:00,
2013-09-08 05:03:00,71.0,69.0,29.99,SW,222,0.0,0.0,93,0.00,,,0.00,weatherlink.com 1.10,2013-09-08 09:03:00,
2013-09-08 05:18:00,71.0,69.0,29.98,SSW,200,0.0,1.0,94,0.06,,,0.06,weatherlink.com 1.10,2013-09-08 09:18:00,
2013-09-08 05:34:00,70.9,70.0,29.98,SSW,205,0.0,0.0,95,0.06,,,0.06,weatherlink.com 1.10,2013-09-08 09:34:00,
2013-09-08 05:48:00,70.6,69.0,29.98,WNW,288,0.0,0.0,95,0.06,,,0.06,weatherlink.com 1.10,2013-09-08 09:48:00,
2013-09-08 06:03:00,70.1,69.0,29.98,West,267,0.0,0.0,95,0.06,,,0.06,weatherlink.com 1.10,2013-09-08 10:03:00,
2013-09-08 06:18:00,69.9,69.0,29.97,West,267,0.0,0.0,95,0.00,,,0.06,weatherlink.com 1.10,2013-09-08 10:18:00,
2013-09-08 06:33:00,69.9,69.0,29.98,West,267,0.0,0.0,96,0.01,,,0.07,weatherlink.com 1.10,2013-09-08 10:33:00,
2013-09-08 06:54:00,70.2,69.0,29.98,West,267,0.0,0.0,96,0.01,,,0.07,weatherlink.com 1.10,2013-09-08 10:54:00,
2013-09-08 07:03:00,70.3,69.0,29.98,West,267,0.0,0.0,96,0.01,,,0.07,weatherlink.com 1.10,2013-09-08 11:03:00,
2013-09-08 07:18:00,70.4,69.0,29.99,West,267,0.0,0.0,96,0.01,,,0.07,weatherlink.com 1.10,2013-09-08 11:18:00,
2013-09-08 07:33:00,70.3,69.0,29.99,West,267,0.0,0.0,96,0.00,,,0.07,weatherlink.com 1.10,2013-09-08 11:33:00,
2013-09-08 07:48:00,70.5,69.0,30.00,West,267,0.0,0.0,96,0.00,,,0.07,weatherlink.com 1.10,2013-09-08 11:48:00,
2013-09-08 08:03:00,71.0,70.0,30.00,West,267,0.0,0.0,96,0.00,,,0.07,weatherlink.com 1.10,2013-09-08 12:03:00,
2013-09-08 08:18:00,71.6,70.0,30.00,West,267,0.0,0.0,96,0.00,,,0.07,weatherlink.com 1.10,2013-09-08 12:18:00,
2013-09-08 08:33:00,72.9,72.0,30.00,NE,49,0.0,0.0,96,0.00,,,0.07,weatherlink.com 1.10,2013-09-08 12:33:00,
2013-09-08 08:48:00,74.9,73.0,30.00,NE,49,0.0,0.0,93,0.00,,,0.07,weatherlink.com 1.10,2013-09-08 12:48:00,
2013-09-08 09:04:00,76.1,73.0,30.00,NE,49,0.0,0.0,90,0.00,,,0.07,weatherlink.com 1.10,2013-09-08 13:04:00,
2013-09-08 09:34:00,77.7,73.0,29.99,SSW,208,1.0,1.0,84,0.00,,,0.07,weatherlink.com 1.10,2013-09-08 13:34:00,
2013-09-08 09:49:00,77.6,72.0,30.00,SW,235,0.0,2.0,82,0.00,,,0.07,weatherlink.com 1.10,2013-09-08 13:49:00,
2013-09-08 10:19:00,80.1,72.0,30.00,SSW,197,0.0,2.0,76,0.00,,,0.07,weatherlink.com 1.10,2013-09-08 14:19:00,
2013-09-08 10:34:00,81.6,73.0,30.00,West,281,0.0,2.0,75,0.00,,,0.07,weatherlink.com 1.10,2013-09-08 14:34:00,
2013-09-08 10:49:00,82.1,73.0,30.01,SW,233,1.0,1.0,74,0.00,,,0.07,weatherlink.com 1.10,2013-09-08 14:49:00,
2013-09-08 11:04:00,82.9,73.0,30.01,SSW,198,0.0,2.0,72,0.00,,,0.07,weatherlink.com 1.10,2013-09-08 15:04:00,
2013-09-08 11:19:00,84.0,72.0,30.00,ENE,77,2.0,3.0,67,0.00,,,0.07,weatherlink.com 1.10,2013-09-08 15:19:00,
2013-09-08 11:34:00,84.3,73.0,30.00,NE,54,0.0,3.0,69,0.00,,,0.07,weatherlink.com 1.10,2013-09-08 15:34:00,
2013-09-08 11:49:00,86.9,72.0,30.00,ENE,68,3.0,3.0,61,0.00,,,0.07,weatherlink.com 1.10,2013-09-08 15:49:00,
2013-09-08 12:04:00,86.1,73.0,30.00,WSW,250,0.0,3.0,64,0.00,,,0.07,weatherlink.com 1.10,2013-09-08 16:04:00,
2013-09-08 12:19:00,87.0,70.0,30.00,NE,54,1.0,3.0,57,0.00,,,0.07,weatherlink.com 1.10,2013-09-08 16:19:00,
2013-09-08 12:34:00,87.2,70.0,30.00,NNE,26,2.0,3.0,57,0.00,,,0.07,weatherlink.com 1.10,2013-09-08 16:34:00,
2013-09-08 17:33:00,86.6,67.0,29.95,West,262,0.0,7.0,52,0.00,,,0.07,weatherlink.com 1.10,2013-09-08 21:33:00,
2013-09-08 17:49:00,87.7,68.0,29.95,WSW,256,1.0,4.0,52,0.00,,,0.07,weatherlink.com 1.10,2013-09-08 21:49:00,
2013-09-08 18:04:00,85.9,68.0,29.95,West,264,0.0,4.0,55,0.00,,,0.07,weatherlink.com 1.10,2013-09-08 22:04:00,
2013-09-08 18:19:00,84.3,68.0,29.95,West,274,1.0,5.0,58,0.00,,,0.07,weatherlink.com 1.10,2013-09-08 22:19:00,
2013-09-08 18:34:00,83.6,69.0,29.95,WSW,238,0.0,2.0,61,0.00,,,0.07,weatherlink.com 1.10,2013-09-08 22:34:00,
2013-09-08 18:49:00,82.8,68.0,29.95,SW,235,0.0,2.0,61,0.00,,,0.07,weatherlink.com 1.10,2013-09-08 22:49:00,
2013-09-08 19:04:00,83.0,69.0,29.95,WSW,238,0.0,1.0,62,0.00,,,0.07,weatherlink.com 1.10,2013-09-08 23:04:00,
2013-09-08 19:19:00,81.5,70.0,29.95,SW,228,1.0,2.0,67,0.00,,,0.07,weatherlink.com 1.10,2013-09-08 23:19:00,
2013-09-08 19:34:00,79.6,70.0,29.95,WSW,238,0.0,1.0,72,0.00,,,0.07,weatherlink.com 1.10,2013-09-08 23:34:00,
2013-09-08 19:49:00,78.2,69.0,29.95,SW,232,0.0,1.0,74,0.00,,,0.07,weatherlink.com 1.10,2013-09-08 23:49:00,
2013-09-08 20:19:00,77.1,69.0,29.95,SW,232,1.0,1.0,75,0.00,,,0.07,weatherlink.com 1.10,2013-09-09 00:19:00,
2013-09-08 20:34:00,76.4,68.0,29.96,SW,235,0.0,1.0,76,0.00,,,0.07,weatherlink.com 1.10,2013-09-09 00:34:00,
2013-09-08 20:50:00,76.9,68.0,29.96,WSW,238,0.0,2.0,74,0.00,,,0.07,weatherlink.com 1.10,2013-09-09 00:50:00,
2013-09-08 21:04:00,76.8,68.0,29.97,WNW,295,0.0,3.0,74,0.00,,,0.07,weatherlink.com 1.10,2013-09-09 01:04:00,
2013-09-08 21:19:00,76.6,68.0,29.98,West,276,0.0,1.0,74,0.00,,,0.07,weatherlink.com 1.10,2013-09-09 01:19:00,
2013-09-08 21:34:00,75.8,68.0,29.98,West,276,0.0,0.0,77,0.00,,,0.07,weatherlink.com 1.10,2013-09-09 01:34:00,
2013-09-08 21:50:00,74.9,68.0,29.98,West,270,0.0,0.0,79,0.00,,,0.07,weatherlink.com 1.10,2013-09-09 01:50:00,
2013-09-08 22:05:00,74.6,68.0,29.98,West,264,0.0,0.0,80,0.00,,,0.07,weatherlink.com 1.10,2013-09-09 02:05:00,
2013-09-08 22:20:00,74.2,68.0,29.98,West,264,0.0,0.0,80,0.00,,,0.07,weatherlink.com 1.10,2013-09-09 02:20:00,
2013-09-08 22:35:00,73.7,68.0,29.99,West,264,0.0,0.0,82,0.00,,,0.07,weatherlink.com 1.10,2013-09-09 02:35:00,
2013-09-08 23:05:00,73.3,68.0,29.99,West,264,0.0,0.0,83,0.00,,,0.07,weatherlink.com 1.10,2013-09-09 03:05:00,
2013-09-08 23:20:00,72.8,68.0,30.00,West,262,0.0,0.0,84,0.00,,,0.07,weatherlink.com 1.10,2013-09-09 03:20:00,
2013-09-08 23:53:00,72.2,68.0,29.99,WSW,246,0.0,0.0,86,0.00,,,0.07,weatherlink.com 1.10,2013-09-09 03:53:00,